User: anonymous   Login
Location: Unspecified
(0.0000°N, 0.0000°E)
Time: 02:56:16
(UTC+00:00)
Language:

Geosat FO - Orbit

View from above orbital plane
View from above orbital plane
View from above satellite
View from above satellite

Ground track
Ground track

The orbit data is extracted from the following two-line orbital elements,

1 25157U 98007A   23088.31085662  .00020128  00000-0  10037-2 0  9992
2 25157 108.0356 213.4570 0151756 199.4085 160.1274 15.08177446346375
Epoch (UTC): 29 March 2023 07:27:38
Eccentricity: 0.0151756
inclination: 108.0356°
perigee height: 437 km
apogee height: 647 km
right ascension of ascending node: 213.4570°
argument of perigee: 199.4085°
revolutions per day: 15.08177446
mean anomaly at epoch: 160.1274°
orbit number at epoch: 34637

The dashed part of the orbit path shows where the satellite is in the earth's shadow,  

DLR